{"data":{"norad_id":37790,"epoch":"2026-09-20T04:51:23.044320Z","epoch_age_seconds":55994,"freshness":"FRESH","line1":"1 37790U 11044C   26263.20235005  .00000215  00000+0  52869-4 0  9993","line2":"2 37790  97.8665 242.5918 0013213  40.4694 319.7488 14.60921204804042","mean_motion":14.60921204,"eccentricity":0.0013213,"inclination_deg":97.8665,"raan_deg":242.5918,"arg_perigee_deg":40.4694,"mean_anomaly_deg":319.7488,"bstar":5.2869e-5,"rev_number":80404,"period_min":98.567944394077,"perigee_km":680.86167264482,"apogee_km":699.54046282261,"semimajor_km":7068.3380677337,"source":"CELESTRAK","updated_at":"2026-09-20T09:00:13.808206Z"}}